FW8285 Weather Reports


Display with metric or nautical units.
time (UTC)temp
F
wind
direction
speed
MPH
gust
MPH
rain 1hr
in
rain 24hr
in
rain mn
in
humidity
%
barometer
mb
20260904234550 70 252 1.0 4.0 0.00 0.00 0.00 74 1011.3
20260904233047 70 0 1.0 7.0 0.00 0.00 0.00 72 1011.1
20260904231546 71 273 1.0 7.0 0.00 0.00 0.00 71 1011.0
20260904230059 72 260 0.0 8.0 0.00 0.00 0.00 70 1010.9
20260904224548 73 240 0.0 7.0 0.00 0.00 0.00 69 1010.9
20260904223105 74 0 2.0 8.0 0.00 0.00 0.00 68 1010.8
20260904221553 75 304 3.0 11.0 0.00 0.00 0.00 66 1010.5
20260904220049 75 234 3.0 8.0 0.00 0.00 0.00 66 1010.5
20260904214553 75 0 3.0 9.0 0.00 0.00 0.00 68 1010.4
20260904213054 76 279 1.0 8.0 0.00 0.00 0.00 69 1010.4
20260904211546 77 304 1.0 9.0 0.00 0.00 0.00 66 1010.4
20260904210048 77 253 0.0 7.0 0.00 0.00 0.00 66 1010.5
20260904204554 78 271 1.0 10.0 0.00 0.00 0.00 64 1010.7
20260904203051 78 300 4.0 15.0 0.00 0.00 0.00 60 1010.8
20260904201556 78 303 5.0 12.0 0.00 0.00 0.00 60 1010.8
20260904194550 79 273 3.0 9.0 0.00 0.00 0.00 61 1010.7
20260904193050 78 275 3.0 11.0 0.00 0.00 0.00 61 1010.8
20260904191548 79 257 4.0 11.0 0.00 0.00 0.00 59 1011.0
20260904190048 79 271 2.0 12.0 0.00 0.00 0.00 59 1011.0
20260904184546 79 284 1.0 10.0 0.00 0.00 0.00 61 1011.1
20260904183048 79 0 3.0 8.0 0.00 0.00 0.00 60 1011.2
20260904181545 78 240 3.0 9.0 0.00 0.00 0.00 61 1011.4
20260904180053 77 229 2.0 8.0 0.00 0.00 0.00 64 1011.4
20260904174551 76 285 3.0 8.0 0.00 0.00 0.00 64 1011.6
20260904173046 76 303 0.0 10.0 0.00 0.00 0.00 68 1011.8
20260904171616 76 302 2.0 9.0 0.00 0.00 0.00 65 1011.7
20260904170051 76 0 0.0 2.0 0.00 0.00 0.00 70 1011.7
20260904164549 77 0 1.0 6.0 0.00 0.00 0.00 65 1011.5
20260904163053 76 0 2.0 9.0 0.00 0.00 0.00 75 1011.6
20260904161555 75 227 4.0 9.0 0.00 0.00 0.00 76 1011.9
20260904160057 75 0 2.0 10.0 0.00 0.00 0.00 77 1011.9
20260904154551 73 252 1.0 9.0 0.00 0.00 0.00 83 1012.1
20260904153107 73 0 1.0 8.0 0.00 0.00 0.00 84 1012.2
20260904151546 73 97 1.0 5.0 0.00 0.00 0.00 84 1012.3
20260904150053 72 0 1.0 5.0 0.00 0.00 0.00 84 1012.7
20260904144556 72 318 2.0 7.0 0.00 0.00 0.00 85 1012.5
20260904143104 72 0 1.0 5.0 0.00 0.00 0.00 85 1012.7
20260904141544 71 134 1.0 6.0 0.00 0.00 0.00 87 1012.7
20260904140054 70 0 1.0 3.0 0.00 0.00 0.00 89 1012.6
20260904134550 69 175 0.0 3.0 0.00 0.00 0.00 91 1012.5
20260904133102 67 271 1.0 5.0 0.00 0.00 0.00 93 1012.6
20260904131548 66 0 0.0 3.0 0.00 0.00 0.00 96 1012.5
20260904130105 65 113 0.0 4.0 0.00 0.00 0.00 98 1012.5
20260904124550 64 0 0.0 3.0 0.00 0.00 0.00 99 1012.7
20260904123051 62 295 0.0 4.0 0.00 0.00 0.00 99 1012.6
20260904121547 62 302 1.0 6.0 0.00 0.00 0.00 99 1012.8
20260904120104 61 0 1.0 4.0 0.00 0.00 0.00 99 1012.8
20260904114552 61 252 0.0 2.0 0.00 0.00 0.00 99 1012.7
20260904113049 59 0 0.0 0.0 0.00 0.00 0.00 99 1012.4
20260904111551 59 0 0.0 0.0 0.00 0.00 0.00 99 1012.3
20260904110046 59 0 0.0 2.0 0.00 0.00 0.00 99 1012.2
20260904104553 60 0 0.0 2.0 0.00 0.00 0.00 99 1012.1
20260904103049 59 0 0.0 0.0 0.00 0.00 0.00 99 1011.9
20260904101547 59 0 0.0 0.0 0.00 0.00 0.00 98 1011.7
20260904100045 60 0 0.0 0.0 0.00 0.00 0.00 98 1011.6
20260904094551 60 0 0.0 0.0 0.00 0.00 0.00 99 1011.5
20260904093049 60 0 0.0 3.0 0.00 0.00 0.00 99 1011.4
20260904091542 59 0 0.0 0.0 0.00 0.00 0.00 98 1011.2
20260904090051 59 0 0.0 0.0 0.00 0.00 0.00 98 1011.3
20260904084557 59 0 0.0 0.0 0.00 0.00 0.00 98 1011.1
20260904083043 59 0 0.0 0.0 0.00 0.00 0.00 98 1011.2
20260904081551 59 0 0.0 0.0 0.00 0.00 0.00 98 1011.0
20260904074545 59 0 0.0 0.0 0.00 0.00 0.00 98 1011.1
20260904073052 60 0 0.0 0.0 0.00 0.00 0.00 98 1011.1
20260904071549 60 0 0.0 0.0 0.00 0.00 0.00 98 1011.3
20260904070054 60 0 0.0 0.0 0.00 0.00 0.00 98 1011.3
20260904064552 60 0 0.0 0.0 0.00 0.00 0.00 98 1011.3
20260904063110 60 0 0.0 0.0 0.00 0.00 0.00 98 1011.5
20260904061550 60 0 0.0 0.0 0.00 0.00 0.00 98 1011.6
20260904060051 60 0 0.0 0.0 0.00 0.00 0.00 97 1011.7
20260904054553 60 0 0.0 0.0 0.00 0.00 0.00 97 1011.8
20260904053105 60 0 0.0 0.0 0.00 0.00 0.00 97 1011.7
20260904051551 61 0 0.0 0.0 0.00 0.00 0.00 97 1011.6
20260904050044 61 0 0.0 0.0 0.00 0.00 0.00 97 1011.8
20260904044554 61 0 0.0 0.0 0.00 0.01 0.00 97 1012.0
20260904043056 62 0 0.0 0.0 0.00 0.01 0.00 97 1012.1
20260904041553 62 0 0.0 0.0 0.00 0.01 0.00 97 1012.2
20260904040051 63 0 0.0 0.0 0.00 0.01 0.00 96 1012.1
20260904034547 63 0 0.0 0.0 0.00 0.07 0.01 96 1012.2
20260904033054 63 0 0.0 0.0 0.00 0.07 0.01 96 1012.3
20260904031552 63 0 0.0 0.0 0.00 0.07 0.01 96 1012.2
20260904024545 64 0 0.0 1.0 0.00 0.07 0.01 95 1012.3
20260904023053 65 0 0.0 0.0 0.00 0.07 0.01 95 1012.6
20260904021556 65 0 0.0 0.0 0.00 0.07 0.01 94 1012.7
20260904020048 65 0 0.0 0.0 0.00 0.07 0.01 94 1012.6
20260904014551 66 0 0.0 0.0 0.00 0.07 0.01 94 1012.6
20260904013112 66 0 0.0 0.0 0.00 0.07 0.01 94 1012.7
20260904011618 66 0 0.0 0.0 0.00 0.07 0.01 93 1012.6
20260904010044 67 0 0.0 0.0 0.00 0.07 0.01 92 1012.6
20260904004552 67 0 0.0 0.0 0.00 0.07 0.01 92 1012.5
20260904003048 68 0 0.0 1.0 0.00 0.07 0.01 90 1012.3
20260904001544 69 0 0.0 0.0 0.00 0.07 0.01 89 1012.5
20260904000048 70 0 0.0 0.0 0.00 0.07 0.01 88 1012.2